Location: Eschentzwiller
(47.7125°N, 7.3981°E)
Time: 03:45:41
(UTC+00:00)

DMSP B5D1-3 - Pass Details

Date: 27 October 2020
Orbit: 768 x 780 km, 98.5° (Epoch: 01 December)

Event Time Altitude Azimuth Distance (km) Brightness Sun altitude
Rises 18:31:40 0° 13° (NNE) 3,269 7.7 -22.7°
Reaches altitude 10° 18:33:59 10° 14° (NNE) 2,339 6.9 -23.0°
Maximum altitude 18:39:10 87° 287° (WNW) 787 4.5 -23.9°
Drops below altitude 10° 18:44:19 10° 198° (SSW) 2,327 7.1 -24.8°
Sets 18:46:37 0° 198° (SSW) 3,251 7.9 -25.2°
